TimeEDT,TemperatureF,Dew PointF,Humidity,Sea Level PressureIn,VisibilityMPH,Wind Direction,Wind SpeedMPH,Gust SpeedMPH,PrecipitationIn,Events,Conditions,WindDirDegrees,DateUTC
12:15 AM,28.4,23.0,80,30.32,10.0,SE,8.1,-,N/A,,Clear,130,2013-03-10 05:15:00
12:35 AM,26.6,23.0,86,30.32,10.0,SE,6.9,-,N/A,,Clear,140,2013-03-10 05:35:00
12:55 AM,26.6,21.2,80,30.32,10.0,SE,8.1,-,N/A,,Clear,130,2013-03-10 05:55:00
1:15 AM,26.6,21.2,80,30.32,10.0,SE,9.2,-,N/A,,Clear,130,2013-03-10 06:15:00
1:35 AM,26.6,21.2,80,30.32,10.0,SE,9.2,-,N/A,,Clear,140,2013-03-10 06:35:00
1:55 AM,28.4,21.2,74,30.31,10.0,SE,8.1,-,N/A,,Clear,140,2013-03-10 06:55:00
3:15 AM,28.4,19.4,69,30.31,10.0,SSE,8.1,-,N/A,,Clear,160,2013-03-10 07:15:00
3:35 AM,26.6,19.4,74,30.30,10.0,SSE,5.8,-,N/A,,Clear,150,2013-03-10 07:35:00
3:55 AM,26.6,23.0,86,30.29,10.0,SSE,4.6,-,N/A,,Clear,160,2013-03-10 07:55:00
4:15 AM,26.6,23.0,86,30.29,10.0,SSE,4.6,-,N/A,,Clear,160,2013-03-10 08:15:00
4:35 AM,28.4,19.4,69,30.28,10.0,South,4.6,-,N/A,,Clear,170,2013-03-10 08:35:00
4:55 AM,28.4,19.4,69,30.29,10.0,SE,5.8,-,N/A,,Clear,140,2013-03-10 08:55:00
5:15 AM,28.4,17.6,64,30.29,10.0,SSE,6.9,-,N/A,,Clear,150,2013-03-10 09:15:00
5:35 AM,30.2,17.6,60,30.29,10.0,SSE,6.9,-,N/A,,Clear,150,2013-03-10 09:35:00
5:55 AM,33.8,17.6,52,30.30,10.0,SSE,9.2,17.3,N/A,,Clear,150,2013-03-10 09:55:00
6:15 AM,32.0,17.6,55,30.31,10.0,SSE,4.6,-,N/A,,Clear,150,2013-03-10 10:15:00
6:35 AM,30.2,17.6,60,30.31,10.0,SE,8.1,-,N/A,,Clear,130,2013-03-10 10:35:00
6:55 AM,28.4,17.6,64,30.31,10.0,SE,10.4,-,N/A,,Clear,130,2013-03-10 10:55:00
7:15 AM,28.4,19.4,69,30.32,10.0,SSE,4.6,-,N/A,,Clear,160,2013-03-10 11:15:00
8:35 AM,32.0,19.4,60,30.33,10.0,SE,8.1,-,N/A,,Clear,140,2013-03-10 12:35:00
8:55 AM,35.6,19.4,52,30.33,10.0,SE,10.4,-,N/A,,Clear,130,2013-03-10 12:55:00
9:15 AM,35.6,21.2,56,30.32,10.0,SE,11.5,-,N/A,,Clear,130,2013-03-10 13:15:00
9:35 AM,35.6,21.2,56,30.32,10.0,SSE,8.1,-,N/A,,Clear,160,2013-03-10 13:35:00
9:55 AM,39.2,21.2,49,30.31,10.0,SE,10.4,-,N/A,,Clear,140,2013-03-10 13:55:00
10:15 AM,39.2,21.2,49,30.30,10.0,SSE,11.5,17.3,N/A,,Clear,160,2013-03-10 14:15:00
10:35 AM,42.8,21.2,42,30.30,10.0,SE,12.7,18.4,N/A,,Clear,140,2013-03-10 14:35:00
10:55 AM,44.6,21.2,39,30.29,10.0,SE,12.7,-,N/A,,Clear,140,2013-03-10 14:55:00
11:15 AM,44.6,21.2,39,30.29,10.0,SE,11.5,-,N/A,,Clear,130,2013-03-10 15:15:00
11:35 AM,44.6,21.2,39,30.28,10.0,SE,9.2,-,N/A,,Clear,130,2013-03-10 15:35:00
11:55 AM,46.4,21.2,37,30.27,10.0,ESE,10.4,17.3,N/A,,Clear,120,2013-03-10 15:55:00
12:15 PM,48.2,19.4,32,30.27,10.0,ESE,11.5,-,N/A,,Clear,120,2013-03-10 16:15:00
12:35 PM,48.2,21.2,34,30.26,10.0,ESE,12.7,16.1,N/A,,Clear,120,2013-03-10 16:35:00
12:55 PM,48.2,21.2,34,30.26,10.0,SE,11.5,-,N/A,,Clear,130,2013-03-10 16:55:00
1:15 PM,50.0,21.2,32,30.25,10.0,ESE,5.8,-,N/A,,Clear,110,2013-03-10 17:15:00
1:35 PM,51.8,21.2,30,30.25,10.0,ESE,9.2,-,N/A,,Clear,110,2013-03-10 17:35:00
1:55 PM,53.6,19.4,26,30.24,10.0,East,8.1,-,N/A,,Clear,100,2013-03-10 17:55:00
2:15 PM,53.6,17.6,24,30.22,10.0,ESE,4.6,-,N/A,,Clear,120,2013-03-10 18:15:00
2:35 PM,53.6,15.8,22,30.22,10.0,SSE,5.8,-,N/A,,Clear,160,2013-03-10 18:35:00
2:56 PM,55.4,15.8,21,30.21,10.0,SSW,5.8,-,N/A,,Clear,210,2013-03-10 18:56:00
3:15 PM,55.4,15.8,21,30.21,10.0,SSW,8.1,-,N/A,,Clear,210,2013-03-10 19:15:00
3:35 PM,55.4,17.6,23,30.20,10.0,South,8.1,-,N/A,,Clear,190,2013-03-10 19:35:00
3:55 PM,55.4,15.8,21,30.20,10.0,SW,5.8,-,N/A,,Mostly Cloudy,220,2013-03-10 19:55:00
4:15 PM,55.4,14.0,20,30.19,10.0,SSW,8.1,-,N/A,,Overcast,200,2013-03-10 20:15:00
4:35 PM,55.4,17.6,23,30.19,10.0,South,5.8,-,N/A,,Overcast,180,2013-03-10 20:35:00
4:55 PM,53.6,19.4,26,30.17,10.0,SSE,10.4,-,N/A,,Overcast,150,2013-03-10 20:55:00
5:15 PM,53.6,21.2,28,30.17,10.0,SE,12.7,17.3,N/A,,Overcast,140,2013-03-10 21:15:00
5:35 PM,51.8,21.2,30,30.17,10.0,SE,15.0,-,N/A,,Mostly Cloudy,130,2013-03-10 21:35:00
5:55 PM,50.0,23.0,35,30.17,10.0,SE,15.0,-,N/A,,Mostly Cloudy,130,2013-03-10 21:55:00
6:15 PM,50.0,21.2,32,30.17,10.0,SE,17.3,-,N/A,,Overcast,130,2013-03-10 22:15:00
6:35 PM,48.2,23.0,37,30.17,10.0,SE,12.7,-,N/A,,Overcast,140,2013-03-10 22:35:00
6:55 PM,48.2,23.0,37,30.19,10.0,South,8.1,-,N/A,,Overcast,170,2013-03-10 22:55:00
7:15 PM,46.4,23.0,40,30.19,10.0,SE,12.7,17.3,N/A,,Scattered Clouds,140,2013-03-10 23:15:00
7:35 PM,46.4,24.8,43,30.19,10.0,SE,13.8,-,N/A,,Mostly Cloudy,130,2013-03-10 23:35:00
8:15 PM,46.4,24.8,43,30.17,10.0,ESE,13.8,18.4,N/A,,Partly Cloudy,120,2013-03-11 00:15:00
8:35 PM,44.6,24.8,46,30.17,10.0,SE,17.3,-,N/A,,Clear,130,2013-03-11 00:35:00
8:55 PM,44.6,24.8,46,30.18,10.0,SE,11.5,-,N/A,,Partly Cloudy,130,2013-03-11 00:55:00
9:15 PM,44.6,24.8,46,30.19,10.0,SE,10.4,-,N/A,,Clear,140,2013-03-11 01:15:00
9:35 PM,44.6,24.8,46,30.19,10.0,SE,10.4,-,N/A,,Clear,130,2013-03-11 01:35:00
9:55 PM,44.6,24.8,46,30.19,10.0,ESE,11.5,-,N/A,,Scattered Clouds,120,2013-03-11 01:55:00
10:15 PM,44.6,26.6,49,30.18,10.0,ESE,11.5,-,N/A,,Partly Cloudy,120,2013-03-11 02:15:00
10:35 PM,42.8,26.6,53,30.19,10.0,ESE,10.4,-,N/A,,Mostly Cloudy,120,2013-03-11 02:35:00
10:56 PM,42.8,26.6,53,30.19,10.0,ESE,11.5,-,N/A,,Overcast,120,2013-03-11 02:56:00
11:15 PM,42.8,26.6,53,30.19,10.0,ESE,10.4,-,N/A,,Scattered Clouds,120,2013-03-11 03:15:00
11:35 PM,42.8,26.6,53,30.18,10.0,ESE,10.4,-,N/A,,Partly Cloudy,120,2013-03-11 03:35:00
11:55 PM,42.8,26.6,53,30.19,10.0,SE,9.2,-,N/A,,Clear,130,2013-03-11 03:55:00
12:15 AM,42.8,26.6,53,30.20,10.0,ESE,9.2,-,N/A,,Clear,120,2013-03-11 04:15:00
12:35 AM,41.0,26.6,57,30.20,10.0,ESE,8.1,-,N/A,,Clear,120,2013-03-11 04:35:00